Location: Wingville
(42.9917°N, 90.4915°W)
Time: 04:28:46
(UTC+00:00)

UWE-3 - Pass Details

Date: 03 July 2022
Orbit: 583 x 677 km, 97.7° (Epoch: 07 August)

Event Time Altitude Azimuth Distance (km) Brightness Sun altitude
Rises 09:23:13 0° 13° (NNE) 2,902 ? -10.0°
Reaches altitude 10° 09:25:23 10° 15° (NNE) 2,006 ? -9.7°
Maximum altitude 09:29:46 77° 103° (ESE) 658 ? -9.2°
Drops below altitude 10° 09:34:14 10° 189° (S) 2,049 ? -8.6°
Enters shadow 09:35:26 - 190° (S) 2,539 ? -8.4°
